Weather History for KY50 - October, 2013

Change the Weather History Date:

Wednesday, October 23, 2013

  Actual Average (KPCZ) Record (KPCZ)
Temperature  
Mean Temperature 33 °F -  
Max Temperature 41 °F 56 °F 83 °F (1963)
Min Temperature 25 °F 37 °F 17 °F (1969)
Degree Days  
Heating Degree Days 32    
Moisture  
Dew Point 26 °F    
Average Humidity 77    
Maximum Humidity 100    
Minimum Humidity 45    
Precipitation  
Precipitation 0.00 in - - ()
Sea Level Pressure  
Sea Level Pressure 29.99 in    
Wind  
Wind Speed 6 mph (WNW)    
Max Wind Speed 15 mph    
Max Gust Speed -    
Visibility 10 miles    
Events      
Averages and records for this station are not official NWS values.
T = Trace of Precipitation, MM = Missing Value Source: NWS Daily Summary

Daily Weather History Graph

Daily Weather History Graph

Search for Another Location

Airport or City:

Trip Planner

Search our weather history database for the weather conditions in past years. The results will help you decide how hot, cold, wet, or windy it might be!

Date:

Astronomy

Oct. 23, 2013 Rise Set
Actual Time 7:22 AM CDT 5:59 PM CDT
Civil Twilight 6:52 AM CDT 6:29 PM CDT
Nautical Twilight 6:19 AM CDT 7:03 PM CDT
Astronomical Twilight 5:45 AM CDT 7:36 PM CDT
Moon 9:25 PM CDT (10/23) 11:44 AM CDT (10/23)
Length of Visible Light 11h 36m
Length of Day
10h 37m
Waning Gibbous, 79% of the Moon is Illuminated
Oct 23
Waning Gibbous
Oct 26
Last Quarter
Nov 3
New
Nov 9
First Quarter
Nov 17
Full

Hourly Weather History & Observations

Time (CDT) Temp. Windchill Dew Point Humidity Pressure Visibility Wind Dir Wind Speed Gust Speed Precip Events Conditions
12:56 AM 27.1 °F 21.8 °F 24.1 °F 88% 29.98 in 10.0 mi NW 4.6 mph - N/A   Clear
1:56 AM 25.2 °F - 25.2 °F 100% 29.97 in 10.0 mi Calm Calm - N/A   Clear
2:56 AM 25.2 °F 20.9 °F 25.2 °F 100% 29.97 in 10.0 mi NW 3.5 mph - N/A   Mostly Cloudy
3:56 AM 27.1 °F 21.8 °F 27.1 °F 100% 29.96 in 10.0 mi WNW 4.6 mph - N/A   Mostly Cloudy
4:56 AM 26.1 °F 20.5 °F 26.1 °F 100% 29.96 in 10.0 mi WNW 4.6 mph - N/A   Overcast
5:56 AM 25.2 °F 20.9 °F 25.2 °F 100% 29.98 in 10.0 mi West 3.5 mph - N/A   Clear
6:56 AM 26.1 °F 21.9 °F 26.1 °F 100% 29.99 in 10.0 mi West 3.5 mph - N/A   Overcast
7:56 AM 27.1 °F 21.8 °F 26.1 °F 96% 29.99 in 10.0 mi WNW 4.6 mph - N/A   Scattered Clouds
8:56 AM 30.0 °F 25.2 °F 27.1 °F 89% 30.00 in 10.0 mi NW 4.6 mph - N/A   Partly Cloudy
9:56 AM 36.0 °F 27.5 °F 24.1 °F 62% 29.99 in 10.0 mi NW 12.7 mph - N/A   Clear
10:56 AM 39.9 °F 32.1 °F 21.0 °F 47% 29.99 in 10.0 mi WNW 13.8 mph - N/A   Clear
11:56 AM 39.9 °F 33.9 °F 23.0 °F 51% 29.99 in 10.0 mi NW 9.2 mph - N/A   Mostly Cloudy
12:56 PM 41.0 °F 33.5 °F 21.0 °F 45% 29.98 in 10.0 mi WNW 13.8 mph - N/A   Mostly Cloudy
1:56 PM 41.0 °F 34.7 °F 23.0 °F 49% 29.97 in 10.0 mi West 10.4 mph - N/A   Mostly Cloudy
2:56 PM 39.9 °F 31.8 °F 25.2 °F 56% 29.97 in 10.0 mi WNW 15.0 mph - N/A   Overcast
3:56 PM 39.2 °F 35.9 °F 24.8 °F 56% 29.96 in 10.0 mi NNW 4.6 mph - N/A   Overcast
4:56 PM 36.9 °F 30.7 °F 24.1 °F 60% 29.99 in 10.0 mi West 8.1 mph - 0.00 in   Overcast
5:56 PM 36.0 °F 29.6 °F 28.0 °F 73% 30.00 in 10.0 mi WSW 8.1 mph - N/A   Mostly Cloudy
6:56 PM 35.6 °F 29.9 °F 28.4 °F 75% 29.99 in 10.0 mi WNW 6.9 mph - N/A   Overcast
7:56 PM 34.0 °F 28.0 °F 28.0 °F 79% 30.02 in 10.0 mi WNW 6.9 mph - 0.00 in   Overcast
8:56 PM 34.0 °F 27.2 °F 28.0 °F 79% 30.01 in 10.0 mi WNW 8.1 mph - N/A   Overcast
9:56 PM 34.0 °F 28.0 °F 28.0 °F 79% 30.01 in 10.0 mi WNW 6.9 mph - N/A   Overcast
10:56 PM 32.9 °F 28.5 °F 28.0 °F 82% 30.02 in 10.0 mi WNW 4.6 mph - N/A   Overcast
11:56 PM 32.9 °F 27.5 °F 27.1 °F 79% 30.02 in 10.0 mi WNW 5.8 mph - N/A   Overcast